[[{"header":{"parameterUnit":"m.s-1","parameterCategory":1,"la1":30.2991,"la2":30.254,"lo1":-89.0895,"lo2":-89.0444,"dy":0.0017,"dx":0.0017,"nx":28,"ny":28,"refTime":"2025-03-11T21:00:00:Z","depth":0,"parameterNumber":2,"parameterNumberName":"U-component_of_WINDS"},"data":[0,0,0,0,0,0,0,0,0,0,0,0,0,0,0,0,0,0,0,0,0,0,0,0,0,0,0,0,0,0,0,0,0,0,0,0,0,0,0,0,0,0,0,0,0,0,0,0,0,0,0,0,0,0,0,0,0,0,-0.671,-0.671,0,-0.6675,-0.6675,-0.6675,-0.6683,-0.6683,-0.6684,-0.6685,-0.6646,-0.6645,-0.6643,0,0,0,0,0,0,0,0,0,0,0,0,0,-0.678,-0.6778,-0.671,-0.671,-0.6709,-0.6676,-0.6675,-0.6675,-0.6682,-0.6683,-0.6684,-0.6685,-0.6647,-0.6645,-0.6643,0,0,0,0,0,0,0,0,0,0,0,0,0,-0.6748,-0.6778,-0.671,-0.6709,-0.6709,-0.6676,-0.6675,-0.6674,-0.6682,-0.6683,-0.6684,-0.6685,-0.6647,-0.6645,-0.6643,-0.6607,0,0,-0.6635,-0.6634,0,0,0,0,0,0,0,0,-0.675,-0.6745,-0.671,-0.6709,-0.6709,-0.6684,-0.6686,-0.6652,-0.6682,-0.6692,-0.6685,-0.6686,-0.6658,-0.6655,-0.6646,-0.6606,-0.6604,-0.6635,-0.6633,-0.6632,-0.6632,0,0,0,0,0,0,0,-0.6752,-0.6747,-0.6696,-0.6709,-0.6709,-0.6709,-0.6706,-0.6679,-0.667,-0.6691,-0.6692,-0.6688,-0.6658,-0.6648,-0.6645,-0.6603,-0.6635,-0.6633,-0.6631,-0.663,-0.653,-0.6529,0,0,0,0,0,0,-0.6755,-0.6748,-0.6697,-0.6695,-0.6732,-0.6707,-0.6703,-0.6691,-0.667,-0.6668,-0.6687,-0.6688,-0.6652,-0.6648,-0.6644,-0.66,-0.6632,-0.663,-0.6629,-0.6532,-0.653,-0.6529,0,0,0,0,0,0,-0.6756,-0.675,-0.6699,-0.6722,-0.6716,-0.6705,-0.6691,-0.669,-0.668,-0.6667,-0.6665,-0.6679,-0.6653,-0.6647,-0.6616,-0.6599,-0.6629,-0.6627,-0.6533,-0.6531,-0.6529,-0.6512,0,0,0,0,0,0,-0.6758,-0.6751,-0.6738,-0.6722,-0.6714,-0.6673,-0.669,-0.6689,-0.6676,-0.6678,-0.6659,-0.6657,-0.6653,-0.662,-0.6614,-0.6596,-0.6625,-0.6534,-0.6532,-0.653,-0.6514,-0.651,-0.6507,0,0,0,0,0,-0.6761,-0.6734,-0.6737,-0.6731,-0.6699,-0.6672,-0.6667,-0.6664,-0.6675,-0.6662,-0.6653,-0.6657,-0.6602,-0.6617,-0.661,-0.6591,-0.6535,-0.6533,-0.653,-0.6516,-0.6511,-0.6507,0,0,0,0,0,0,-0.6748,-0.6732,-0.6735,-0.6703,-0.6689,-0.6673,-0.6656,-0.6659,-0.6641,-0.6643,-0.6639,-0.6635,-0.6603,-0.6594,-0.6611,-0.6555,-0.657,-0.6566,-0.6561,-0.6556,-0.6553,-0.6555,-0.6623,0,0,0,0,0,-0.6742,-0.6723,-0.671,-0.6682,-0.6675,-0.6667,-0.6655,-0.6654,-0.6639,-0.6632,-0.6621,-0.6605,-0.6584,-0.657,-0.655,-0.6513,-0.6508,-0.6497,-0.6493,-0.649,-0.6486,-0.6464,-0.6458,-0.652,-0.652,-0.652,0,0,-0.6729,-0.6717,-0.6705,-0.668,-0.6668,-0.6647,-0.6662,-0.6639,-0.6623,-0.6629,-0.6598,-0.659,-0.6571,-0.6537,-0.6521,-0.6529,-0.6468,-0.6486,-0.6484,-0.6482,-0.6461,-0.6455,-0.645,-0.6518,-0.6519,-0.6519,0,0,-0.6693,-0.6683,-0.6659,-0.6647,-0.663,-0.6625,-0.6619,-0.6602,-0.6597,-0.6567,-0.657,-0.655,-0.6514,-0.6501,-0.6489,-0.6447,-0.645,-0.644,-0.6419,-0.6398,-0.6393,-0.6389,-0.6372,-0.6367,-0.6437,-0.6437,-0.6437,0,-0.6678,-0.6647,-0.6646,-0.6622,-0.661,-0.6615,-0.6589,-0.6578,-0.6554,-0.6545,-0.6554,-0.6508,-0.6496,-0.6458,-0.6447,-0.6438,-0.643,-0.6442,-0.6395,-0.639,-0.6386,-0.637,-0.6364,-0.6436,-0.6436,-0.6436,-0.6436,0,-0.6629,-0.6607,-0.6589,-0.6567,-0.6553,-0.6529,-0.6522,-0.6508,-0.6507,-0.6501,-0.6469,-0.6455,-0.6431,-0.6422,-0.6422,-0.6383,-0.6388,-0.6396,-0.6411,-0.6379,-0.6364,-0.6358,-0.6434,-0.6434,-0.6435,-0.6435,0,0,-0.6584,-0.6561,-0.6554,-0.6544,-0.6525,-0.6507,-0.6483,-0.646,-0.6447,-0.6431,-0.6408,-0.6377,-0.6384,-0.6371,-0.6369,-0.635,-0.6316,-0.636,-0.6359,-0.6351,-0.627,-0.6264,-0.6257,-0.6318,-0.6317,-0.6316,-0.6271,0,-0.6546,-0.6503,-0.65,-0.646,-0.6439,-0.6443,-0.6421,-0.6406,-0.6399,-0.6379,-0.6371,-0.6349,-0.636,-0.6352,-0.6334,-0.6324,-0.6299,-0.6327,-0.6296,-0.6295,-0.6299,-0.6249,-0.6242,-0.6201,-0.6265,-0.6264,-0.6264,0,-0.6495,-0.6477,-0.6436,-0.6418,-0.6409,-0.639,-0.6368,-0.635,-0.6332,-0.6328,-0.6313,-0.6313,-0.6286,-0.6303,-0.6264,-0.6283,-0.627,-0.6263,-0.6262,-0.6257,-0.6276,-0.6242,-0.6188,-0.6181,-0.6255,-0.6255,-0.6256,0,-0.6465,-0.643,-0.6401,-0.6392,-0.6371,-0.6357,-0.6348,-0.6331,-0.6318,-0.6298,-0.6289,-0.6267,-0.6254,-0.6236,-0.6229,-0.6243,-0.619,-0.6207,-0.6185,-0.6185,-0.6173,-0.6173,-0.6114,-0.6167,-0.6167,-0.6167,-0.6167,0,-0.6421,-0.6395,-0.6387,-0.6368,-0.6339,-0.6335,-0.6306,-0.6297,-0.6282,-0.6261,-0.6263,-0.6243,-0.6237,-0.6215,-0.621,-0.6177,-0.6172,-0.6167,-0.6165,-0.6166,-0.6166,-0.6156,-0.6158,-0.6165,-0.6166,-0.6166,-0.6166,0,-0.6382,-0.6376,-0.6343,-0.6326,-0.6321,-0.63,-0.6285,-0.6266,-0.626,-0.6233,-0.6226,-0.6215,-0.6189,-0.6181,-0.615,-0.6147,-0.6108,-0.611,-0.6114,-0.6114,-0.6091,-0.6093,-0.6022,-0.6012,-0.6073,-0.6072,-0.6072,0,-0.6354,-0.6334,-0.6315,-0.6301,-0.6291,-0.6269,-0.6255,-0.6251,-0.6236,-0.6214,-0.6197,-0.6172,-0.6152,-0.611,-0.6098,-0.6074,-0.6075,-0.6051,-0.6071,-0.6071,-0.6072,-0.6073,-0.607,-0.6047,-0.6047,-0.6046,-0.6046,0,-0.6305,-0.6302,-0.6282,-0.626,-0.6243,-0.6226,-0.6209,-0.6197,-0.619,-0.6173,-0.6147,-0.6131,-0.6099,-0.6074,-0.6049,-0.6038,-0.604,-0.604,-0.6033,-0.6033,-0.6035,-0.6032,-0.6103,-0.6041,-0.6042,-0.6042,-0.6042,-0.6043,-0.6269,-0.6251,-0.6234,-0.6211,-0.6198,-0.6182,-0.6163,-0.6154,-0.6133,-0.6107,-0.6105,-0.6077,-0.6058,-0.6025,-0.6013,-0.599,-0.5996,-0.5987,-0.5984,-0.5981,-0.5979,-0.604,-0.5985,-0.5985,-0.5986,-0.5986,-0.5986,0,-0.6219,-0.6208,-0.6187,-0.6163,-0.6145,-0.6149,-0.613,-0.6114,-0.6089,-0.6072,-0.6052,-0.6021,-0.5996,-0.5982,-0.5957,-0.594,-0.594,-0.5934,-0.5934,-0.5931,-0.5975,-0.5983,-0.5934,-0.5934,-0.5934,-0.5934,-0.5934,-0.5934,-0.619,-0.6159,-0.6154,-0.6116,-0.6105,-0.6078,-0.6066,-0.6051,-0.6037,-0.6003,-0.5982,-0.5974,-0.5957,-0.593,-0.5907,-0.5903,-0.5893,-0.5885,-0.5882,-0.5923,-0.5928,-0.5933,-0.594,-0.5883,-0.5883,-0.5839,-0.5839,-0.5838]},{"header":{"parameterUnit":"m.s-1","parameterCategory":1,"la1":30.2991,"la2":30.254,"lo1":-89.0895,"lo2":-89.0444,"dy":0.0017,"dx":0.0017,"nx":28,"ny":28,"refTime":"2025-03-11T21:00:00:Z","depth":0,"parameterNumber":3,"parameterNumberName":"V-component_of_WINDS"},"data":[0,0,0,0,0,0,0,0,0,0,0,0,0,0,0,0,0,0,0,0,0,0,0,0,0,0,0,0,0,0,0,0,0,0,0,0,0,0,0,0,0,0,0,0,0,0,0,0,0,0,0,0,0,0,0,0,0,0,3.273,3.2732,0,3.2872,3.2873,3.2875,3.2893,3.2892,3.2891,3.2889,3.3038,3.3043,3.3048,0,0,0,0,0,0,0,0,0,0,0,0,0,3.248,3.2485,3.273,3.2732,3.2734,3.2872,3.2874,3.2876,3.2894,3.2892,3.289,3.2889,3.3036,3.3042,3.3048,0,0,0,0,0,0,0,0,0,0,0,0,0,3.2602,3.2486,3.273,3.2759,3.2763,3.2871,3.2874,3.2876,3.2894,3.2892,3.289,3.2888,3.3034,3.3041,3.3049,3.3138,0,0,3.3073,3.3077,0,0,0,0,0,0,0,0,3.2595,3.2611,3.2753,3.2757,3.2762,3.2863,3.284,3.2964,3.2895,3.2844,3.2889,3.2887,3.2981,3.2993,3.3025,3.3145,3.3152,3.3074,3.3079,3.3082,3.3084,0,0,0,0,0,0,0,3.2587,3.2605,3.2786,3.2755,3.2761,3.2767,3.2782,3.2863,3.2923,3.2849,3.285,3.2867,3.2983,3.3017,3.3028,3.3154,3.3074,3.3081,3.3085,3.3088,3.3359,3.3362,0,0,0,0,0,0,3.2572,3.2598,3.2782,3.279,3.2672,3.2773,3.279,3.2833,3.2922,3.2933,3.2868,3.2867,3.3005,3.3019,3.3033,3.3146,3.3082,3.3089,3.3094,3.3357,3.336,3.3363,0,0,0,0,0,0,3.2567,3.2588,3.2776,3.2695,3.2719,3.278,3.2827,3.2836,3.287,3.2937,3.2948,3.2891,3.3004,3.3022,3.3113,3.3152,3.3093,3.31,3.3354,3.3358,3.3361,3.3371,0,0,0,0,0,0,3.2559,3.2586,3.2619,3.2695,3.2723,3.2851,3.283,3.2841,3.2883,3.2883,3.2961,3.2972,3.3003,3.3101,3.3121,3.3161,3.3106,3.3351,3.3356,3.336,3.3368,3.3375,3.3381,0,0,0,0,0,3.255,3.2616,3.2621,3.2643,3.2766,3.2854,3.287,3.2903,3.2886,3.2921,3.2965,3.297,3.3144,3.311,3.3132,3.3176,3.3348,3.3354,3.336,3.3365,3.3373,3.3381,0,0,0,0,0,0,3.2543,3.2627,3.2633,3.2725,3.2782,3.2856,3.2901,3.2911,3.2975,3.2972,3.3012,3.303,3.3119,3.3156,3.3117,3.3269,3.3245,3.3255,3.3241,3.325,3.3256,3.3246,3.3112,0,0,0,0,0,3.2553,3.2616,3.2685,3.276,3.2788,3.284,3.2879,3.2901,3.2962,3.2986,3.3036,3.3096,3.3165,3.321,3.3276,3.3373,3.3392,3.3414,3.3421,3.3426,3.3435,3.3492,3.3504,3.3381,3.3381,3.3381,0,0,3.2572,3.2625,3.2663,3.276,3.2807,3.2873,3.286,3.293,3.298,3.2997,3.3086,3.3125,3.3195,3.329,3.3334,3.3324,3.3473,3.3433,3.3437,3.3443,3.3499,3.3511,3.3521,3.3385,3.3384,3.3384,0,0,3.2642,3.2688,3.2756,3.2804,3.2875,3.2909,3.2926,3.3,3.3026,3.3116,3.3131,3.3192,3.3309,3.3359,3.34,3.3492,3.3501,3.3513,3.3548,3.3603,3.3613,3.3622,3.3657,3.3669,3.3521,3.3521,3.3522,0,3.2658,3.2757,3.279,3.2861,3.2904,3.2923,3.2994,3.3039,3.3128,3.3159,3.3146,3.3295,3.3344,3.3452,3.3475,3.3507,3.3529,3.3504,3.3609,3.3618,3.3627,3.3661,3.3674,3.3523,3.3523,3.3522,3.3522,0,3.2774,3.2842,3.289,3.2976,3.3025,3.3095,3.3142,3.3188,3.3205,3.3242,3.3335,3.3394,3.3474,3.3501,3.3519,3.3614,3.3606,3.36,3.3577,3.3639,3.3672,3.3685,3.3524,3.3524,3.3524,3.3523,0,0,3.2842,3.2947,3.2964,3.3005,3.3086,3.3141,3.3214,3.3292,3.3332,3.3394,3.3457,3.3557,3.3554,3.36,3.3624,3.3672,3.3746,3.3662,3.3664,3.3677,3.3857,3.3861,3.3876,3.3751,3.3754,3.3756,3.3852,0,3.2922,3.3051,3.3085,3.3195,3.3261,3.3281,3.3344,3.3402,3.3439,3.3502,3.3543,3.3614,3.3603,3.3631,3.368,3.3726,3.3782,3.3719,3.3813,3.3816,3.3796,3.3893,3.3897,3.3984,3.3865,3.3867,3.3868,0,3.3033,3.3097,3.3214,3.329,3.3319,3.3375,3.3451,3.351,3.3577,3.3601,3.3654,3.3675,3.3754,3.3726,3.3837,3.3794,3.3835,3.3864,3.3868,3.3879,3.3847,3.3908,3.4012,3.4026,3.3889,3.3887,3.3885,0,3.3073,3.319,3.3275,3.3309,3.3399,3.3439,3.3478,3.3543,3.3589,3.3657,3.3687,3.3763,3.3805,3.3864,3.3905,3.3881,3.4014,3.3989,3.4038,3.4038,3.4066,3.4064,3.418,3.409,3.4089,3.4089,3.4089,0,3.3161,3.3232,3.3295,3.3348,3.3429,3.3469,3.3549,3.3589,3.3648,3.3711,3.3733,3.3791,3.3841,3.3908,3.3941,3.403,3.4048,3.4071,3.4079,3.407,3.4067,3.4098,3.4094,3.4093,3.4092,3.4091,3.4091,0,3.3219,3.3264,3.3359,3.3437,3.3458,3.3515,3.3583,3.3636,3.3674,3.3754,3.3775,3.3836,3.3915,3.3962,3.4062,3.4085,3.4184,3.4189,3.4161,3.4165,3.4212,3.4208,3.4354,3.4376,3.4269,3.427,3.427,0,3.3272,3.3328,3.3412,3.3455,3.3495,3.3565,3.3612,3.3654,3.3703,3.3786,3.383,3.3911,3.3978,3.4105,3.4159,3.4237,3.4245,3.4291,3.4257,3.4247,3.4249,3.4245,3.4253,3.4297,3.4298,3.4299,3.4299,0,3.3363,3.3383,3.345,3.3525,3.3581,3.3643,3.3705,3.3739,3.3793,3.3847,3.3928,3.398,3.4084,3.4165,3.4248,3.4291,3.4306,3.4309,3.4325,3.4317,3.43,3.4312,3.4179,3.4306,3.4305,3.4305,3.4304,3.4304,3.3422,3.3473,3.3541,3.3616,3.3667,3.3725,3.3779,3.3825,3.3893,3.398,3.4002,3.4088,3.4158,3.4271,3.4316,3.4386,3.4379,3.4401,3.4407,3.4413,3.4415,3.4287,3.4401,3.4401,3.4401,3.4401,3.4401,0,3.3515,3.356,3.3629,3.3715,3.3774,3.3781,3.3851,3.3901,3.3976,3.404,3.4106,3.4201,3.4281,3.4342,3.4425,3.4469,3.4478,3.449,3.4487,3.4498,3.4416,3.4395,3.4481,3.4481,3.4481,3.4481,3.4481,3.4481,3.3571,3.3659,3.3688,3.3803,3.3848,3.3932,3.3972,3.4026,3.4077,3.4183,3.4249,3.4288,3.4352,3.444,3.4514,3.453,3.4561,3.4572,3.4589,3.4512,3.4503,3.4495,3.4475,3.4577,3.4578,3.4666,3.4667,3.4667]}]]